Find Geely Xingzuo 06 zu 02 xing

NORAD ID: 65714 Int'l Des: 2025-214 Owner: GEESP Country: CN Constellation: geesatcom operational
LEOCIRCULAR

現在のビュー

3D地球を読み込み中...

About Geely Xingzuo 06 zu 02 xing

Geely Xingzuo 06 zu 02 xing (NORAD 65714) is a geesatcom constellation satellite launched Sep 24, 2025 by GEESP of CN. It operates in LEO, CIRCULAR orbit with a mass of 130.00 kg.

Geely Xingzuo 06 zu 02 xingについて

説明を読み込み中...

次回通過

Passes for default location (London). Set your location on the main map for personalized predictions.

高度履歴

Loading altitude history...

軌道要素

1 65714U 25214C 26195.33718323 -.00000828 00000-0 -72267-4 0 9998
2 65714 49.9844 182.7031 0010257 318.0488 41.9664 14.83424974 43533
Epoch: Jul 14, 2026 • Age: 13 hours

現在のステータス

高度 622.0 km
遠地点 / 近地点 N/A
速度 7.55 km/s
衛星直下点 38.52°N, 29.97°W
打ち上げ日 Sep 24, 2025
運用期間 0.8 years
タイプ other

技術仕様

分類 Payload
質量 130.00 kg
乾燥質量 130.00 kg
総質量 130.00 kg
長さ 1.00 m
直径 0.50 m
スパン 2.00 m
形状 Box + 2 pan
製造者 GWCG
バスタイプ GPS100
フェーズステータス In Orbit
所有者/国 GEESP/CN

Most Searched